Location: Unspecified
(54.1780°N, 0.0000°E)
Time: 05:55:58
(UTC+00:00)

Transit 2A - Pass Details

Date: 21 June 2019
Orbit: 594 x 965 km, 66.7° (Epoch: 15 July)

Event Time Altitude Azimuth Distance (km) Brightness Sun altitude
Rises 06:13:21 0° 307° (NW) 3,602 9.1 20.5°
Reaches altitude 10° 06:16:21 10° 318° (NW) 2,616 8.5 20.9°
Maximum altitude 06:21:34 29° 17° (NNE) 1,560 8.2 21.7°
Drops below altitude 10° 06:26:24 10° 77° (ENE) 2,413 10.7 22.3°
Sets 06:29:03 0° 88° (E) 3,277 10.7 22.7°
